Tracking 32420 objects as of 8-Dec-2025
HD Live streaming from Space Station
objects crossing your sky now

STARLINK-4758

Track STARLINK-4758 now!
10-day predictions
STARLINK-4758 is classified as:


NORAD ID: 53820
Int'l Code: 2022-114C
Perigee: 545.9 km
Apogee: 547.8 km
Inclination: 53.2 °
Period: 95.4 minutes
Semi major axis: 6917 km
RCS: Unknown
Launch date: September 19, 2022
Source: United States (US)
Launch site: AIR FORCE EASTERN TEST RANGE (AFETR)
Your satellite tracking list
Your tracking list is empty




NASA's NSSDC Master Catalog

Two Line Element Set (TLE):
1 53820U 22114C   25342.31399780  .00000543  00000-0  52177-4 0  9992
2 53820  53.2189 354.5442 0001418  88.4391 271.6763 15.08845501179031
Source of the keplerian elements: AFSPC